QPF
0.03 0.03 0.03 0.01 0.01 0.02 0.02 0.01 0.01 0.01 0.02 0.01 0.01 0.02 0.03 0.03 0.02 0.02 0.01 0.01 0.02 0.02 0.04 0.04 0.07 0.07 0.07 0.07 0.07 0.08 0.07 0.07 0.08 0.09 0.09 0.07 0.05 0.05 0.04 0.04 0.02 0.02 0.01
0.02 0.02 0.02 0.01 0.01 0.01 0.02 0.02 0.01 0.01 0.01 0.01 0.01 0.02 0.02 0.01 0.02 0.01 0.02 0.01 0.02 0.02 0.03 0.04 0.05 0.07 0.08 0.08 0.08 0.09 0.08 0.06 0.07 0.08 0.09 0.08 0.07 0.04 0.03 0.03 0.02 0.02 0.02
0.02 0.02 0.02 0.02 0.01 0.01 0.01 0.01 0.01 0.01 0.01 0.01 0.01 0.01 0.01 0.01 0.01 0.01 0.02 0.02 0.01 0.02 0.02 0.03 0.05 0.06 0.07 0.07 0.07 0.09 0.09 0.07 0.07 0.08 0.09 0.08 0.07 0.04 0.03 0.02 0.02 0.02 0.02
0.02 0.02 0.01 0.01 0.01 0.00 0.00 0.01 0.01 0.01 0.01 0.01 0.01 0.01 0.01 0.02 0.02 0.03 0.03 0.02 0.02 0.02 0.02 0.03 0.03 0.04 0.05 0.05 0.05 0.06 0.08 0.09 0.08 0.07 0.07 0.07 0.05 0.05 0.04 0.03 0.03 0.03 0.03
0.02 0.02 0.01 0.02 0.01 0.01 0.01 0.01 0.01 0.01 0.01 0.01 0.01 0.02 0.01 0.01 0.01 0.03 0.04 0.03 0.02 0.01 0.02 0.03 0.03 0.03 0.03 0.03 0.03 0.04 0.06 0.08 0.07 0.05 0.05 0.05 0.06 0.05 0.06 0.04 0.04 0.04 0.04
0.03 0.02 0.02 0.02 0.02 0.01 0.02 0.02 0.01 0.01 0.01 0.01 0.01 0.01 0.02 0.02 0.02 0.03 0.03 0.02 0.02 0.02 0.02 0.03 0.04 0.04 0.03 0.03 0.03 0.03 0.05 0.05 0.06 0.06 0.05 0.04 0.04 0.04 0.05 0.05 0.05 0.06 0.06
0.02 0.01 0.01 0.02 0.03 0.01 0.01 0.01 0.01 0.01 0.01 0.01 0.01 0.01 0.01 0.02 0.02 0.03 0.02 0.02 0.02 0.02 0.02 0.03 0.05 0.05 0.04 0.04 0.04 0.05 0.05 0.05 0.05 0.06 0.05 0.04 0.04 0.05 0.05 0.05 0.05 0.06 0.06
0.01 0.02 0.03 0.03 0.05 0.04 0.02 0.01 0.01 0.02 0.01 0.01 0.02 0.02 0.03 0.03 0.03 0.03 0.02 0.02 0.02 0.02 0.02 0.03 0.05 0.05 0.05 0.05 0.05 0.06 0.06 0.06 0.05 0.05 0.06 0.04 0.04 0.05 0.06 0.05 0.05 0.05 0.05
0.01 0.02 0.04 0.04 0.05 0.05 0.02 0.02 0.02 0.01 0.01 0.01 0.02 0.02 0.03 0.03 0.03 0.03 0.03 0.02 0.03 0.02 0.02 0.03 0.05 0.06 0.05 0.05 0.06 0.06 0.05 0.05 0.05 0.05 0.06 0.05 0.05 0.04 0.05 0.05 0.05 0.06 0.05
0.01 0.02 0.04 0.06 0.05 0.05 0.04 0.03 0.03 0.02 0.01 0.01 0.02 0.02 0.02 0.02 0.02 0.03 0.03 0.03 0.03 0.02 0.03 0.04 0.05 0.06 0.06 0.06 0.07 0.07 0.05 0.06 0.05 0.06 0.05 0.06 0.06 0.05 0.05 0.04 0.05 0.06 0.05
0.01 0.02 0.05 0.07 0.05 0.04 0.05 0.03 0.03 0.02 0.02 0.01 0.01 0.01 0.01 0.02 0.02 0.02 0.03 0.03 0.03 0.03 0.03 0.03 0.05 0.05 0.07 0.07 0.08 0.07 0.06 0.05 0.06 0.06 0.05 0.06 0.07 0.07 0.05 0.05 0.05 0.05 0.05
0.01 0.02 0.03 0.06 0.06 0.04 0.04 0.04 0.03 0.02 0.02 0.01 0.01 0.01 0.01 0.01 0.02 0.03 0.03 0.03 0.04 0.04 0.04 0.04 0.05 0.05 0.06 0.07 0.08 0.07 0.07 0.08 0.07 0.07 0.06 0.07 0.07 0.07 0.06 0.05 0.05 0.05 0.05
0.01 0.01 0.02 0.04 0.05 0.05 0.04 0.03 0.02 0.02 0.02 0.02 0.01 0.01 0.02 0.02 0.02 0.03 0.03 0.04 0.04 0.05 0.05 0.05 0.05 0.05 0.05 0.05 0.06 0.06 0.07 0.08 0.08 0.09 0.08 0.07 0.08 0.07 0.06 0.05 0.04 0.04 0.04
0.02 0.02 0.02 0.02 0.03 0.04 0.03 0.02 0.02 0.02 0.02 0.01 0.01 0.02 0.03 0.03 0.02 0.03 0.03 0.03 0.03 0.03 0.04 0.05 0.05 0.05 0.04 0.05 0.05 0.05 0.05 0.07 0.08 0.07 0.06 0.06 0.06 0.07 0.06 0.06 0.06 0.06 0.06
0.01 0.01 0.01 0.02 0.02 0.02 0.02 0.02 0.02 0.02 0.02 0.02 0.02 0.03 0.03 0.03 0.02 0.02 0.03 0.03 0.03 0.04 0.04 0.04 0.05 0.05 0.04 0.03 0.03 0.03 0.05 0.05 0.07 0.09 0.09 0.08 0.08 0.07 0.07 0.07 0.06 0.06 0.06
0.01 0.01 0.01 0.02 0.02 0.02 0.02 0.02 0.01 0.01 0.01 0.01 0.01 0.02 0.02 0.02 0.02 0.02 0.03 0.04 0.04 0.04 0.05 0.05 0.05 0.04 0.02 0.02 0.02 0.02 0.04 0.06 0.08 0.08 0.09 0.10 0.12 0.11 0.08 0.07 0.07 0.06 0.05
0.01 0.01 0.01 0.02 0.01 0.01 0.02 0.02 0.01 0.01 0.01 0.01 0.01 0.01 0.01 0.02 0.02 0.02 0.02 0.03 0.05 0.07 0.07 0.06 0.04 0.03 0.03 0.02 0.02 0.02 0.03 0.03 0.04 0.05 0.07 0.08 0.09 0.10 0.09 0.08 0.07 0.06 0.05
0.01 0.02 0.02 0.01 0.01 0.01 0.02 0.01 0.01 0.01 0.01 0.01 0.01 0.01 0.01 0.02 0.02 0.01 0.01 0.03 0.05 0.08 0.09 0.05 0.03 0.03 0.03 0.03 0.02 0.02 0.03 0.03 0.03 0.03 0.04 0.05 0.08 0.11 0.12 0.12 0.10 0.08 0.07
0.02 0.02 0.03 0.02 0.01 0.01 0.01 0.01 0.01 0.01 0.01 0.01 0.01 0.02 0.03 0.03 0.01 0.01 0.02 0.03 0.04 0.07 0.07 0.04 0.03 0.03 0.02 0.02 0.02 0.02 0.04 0.04 0.03 0.04 0.04 0.05 0.05 0.06 0.09 0.11 0.13 0.13 0.10
0.01 0.01 0.02 0.01 0.01 0.01 0.01 0.02 0.01 0.01 0.01 0.01 0.01 0.02 0.02 0.02 0.02 0.02 0.03 0.03 0.04 0.05 0.04 0.03 0.02 0.02 0.02 0.02 0.01 0.02 0.04 0.04 0.04 0.04 0.04 0.04 0.05 0.04 0.04 0.06 0.09 0.12 0.14
0.01 0.01 0.01 0.01 0.01 0.01 0.01 0.01 0.01 0.01 0.01 0.01 0.01 0.01 0.01 0.01 0.01 0.01 0.02 0.03 0.04 0.03 0.03 0.02 0.02 0.03 0.02 0.02 0.01 0.02 0.03 0.03 0.04 0.03 0.04 0.05 0.04 0.04 0.03 0.04 0.06 0.08 0.08
0.01 0.01 0.01 0.02 0.02 0.01 0.01 0.02 0.01 0.01 0.01 0.01 0.02 0.02 0.01 0.01 0.01 0.01 0.01 0.02 0.03 0.02 0.02 0.02 0.02 0.02 0.03 0.03 0.02 0.01 0.02 0.03 0.03 0.03 0.05 0.05 0.04 0.03 0.03 0.03 0.04 0.05 0.06
0.01 0.01 0.01 0.02 0.02 0.01 0.01 0.01 0.01 0.01 0.01 0.01 0.02 0.03 0.02 0.01 0.02 0.02 0.01 0.01 0.02 0.02 0.02 0.01 0.01 0.02 0.03 0.03 0.03 0.02 0.02 0.02 0.02 0.03 0.03 0.03 0.03 0.03 0.03 0.04 0.05 0.05 0.05
0.01 0.01 0.01 0.01 0.01 0.01 0.01 0.01 0.01 0.01 0.01 0.01 0.02 0.03 0.01 0.01 0.02 0.02 0.02 0.02 0.02 0.02 0.02 0.02 0.02 0.03 0.03 0.02 0.03 0.02 0.02 0.02 0.02 0.02 0.02 0.02 0.03 0.03 0.03 0.04 0.04 0.04 0.06
0.01 0.01 0.01 0.02 0.01 0.00 0.01 0.01 0.01 0.01 0.01 0.01 0.02 0.02 0.01 0.01 0.01 0.00 0.01 0.01 0.01 0.02 0.02 0.02 0.03 0.03 0.02 0.02 0.02 0.02 0.02 0.02 0.02 0.03 0.03 0.03 0.03 0.03 0.03 0.03 0.03 0.04 0.04
0.01 0.01 0.01 0.01 0.01 0.00 0.00 0.01 0.01 0.01 0.02 0.01 0.01 0.02 0.02 0.01 0.01 0.01 0.01 0.01 0.01 0.01 0.02 0.03 0.04 0.02 0.02 0.02 0.02 0.02 0.02 0.01 0.02 0.02 0.03 0.03 0.03 0.04 0.03 0.03 0.03 0.03 0.04
MSLP
1007.68 1007.87 1008.09 1008.36 1008.63 1008.92 1009.21 1009.49 1009.74 1009.96 1010.14 1010.26 1010.34 1010.38 1010.41 1010.44 1010.48 1010.56 1010.67 1010.79 1010.91 1011.02 1011.10 1011.16 1011.23 1011.33 1011.52 1011.82 1012.27 1012.85 1013.55 1014.32 1015.07 1015.74 1016.26 1016.60 1016.73 1016.68 1016.48 1016.23 1015.98 1015.80 1015.73
1007.86 1007.91 1008.01 1008.14 1008.32 1008.53 1008.76 1009.01 1009.26 1009.47 1009.64 1009.75 1009.80 1009.80 1009.78 1009.76 1009.78 1009.85 1009.97 1010.13 1010.32 1010.50 1010.65 1010.78 1010.88 1010.99 1011.15 1011.40 1011.77 1012.28 1012.92 1013.65 1014.40 1015.09 1015.67 1016.09 1016.31 1016.34 1016.22 1016.01 1015.79 1015.61 1015.54
1008.01 1007.95 1007.92 1007.93 1008.00 1008.12 1008.30 1008.51 1008.73 1008.93 1009.09 1009.18 1009.20 1009.16 1009.10 1009.05 1009.04 1009.10 1009.24 1009.44 1009.69 1009.95 1010.18 1010.37 1010.52 1010.64 1010.77 1010.96 1011.26 1011.68 1012.23 1012.89 1013.60 1014.30 1014.91 1015.40 1015.71 1015.85 1015.83 1015.72 1015.58 1015.46 1015.42
1008.10 1007.95 1007.82 1007.74 1007.71 1007.75 1007.86 1008.02 1008.21 1008.39 1008.53 1008.61 1008.61 1008.54 1008.45 1008.37 1008.34 1008.39 1008.54 1008.79 1009.09 1009.42 1009.72 1009.98 1010.17 1010.31 1010.43 1010.57 1010.79 1011.12 1011.57 1012.14 1012.79 1013.46 1014.09 1014.62 1015.02 1015.27 1015.39 1015.40 1015.38 1015.36 1015.39
1008.12 1007.92 1007.72 1007.56 1007.45 1007.42 1007.46 1007.58 1007.73 1007.89 1008.01 1008.07 1008.06 1007.98 1007.87 1007.77 1007.72 1007.77 1007.93 1008.19 1008.54 1008.92 1009.29 1009.61 1009.85 1010.02 1010.14 1010.25 1010.41 1010.65 1011.01 1011.49 1012.06 1012.68 1013.30 1013.86 1014.33 1014.69 1014.93 1015.09 1015.20 1015.30 1015.45
1008.10 1007.87 1007.63 1007.41 1007.24 1007.14 1007.12 1007.18 1007.29 1007.42 1007.52 1007.57 1007.54 1007.46 1007.34 1007.23 1007.17 1007.21 1007.37 1007.65 1008.02 1008.44 1008.86 1009.23 1009.53 1009.74 1009.88 1009.99 1010.11 1010.30 1010.57 1010.96 1011.45 1012.01 1012.60 1013.18 1013.70 1014.14 1014.50 1014.80 1015.05 1015.29 1015.55
1008.04 1007.81 1007.55 1007.28 1007.06 1006.89 1006.81 1006.80 1006.86 1006.94 1007.02 1007.05 1007.02 1006.93 1006.82 1006.70 1006.64 1006.68 1006.83 1007.10 1007.48 1007.93 1008.39 1008.81 1009.17 1009.43 1009.62 1009.75 1009.87 1010.02 1010.25 1010.57 1010.99 1011.48 1012.03 1012.60 1013.15 1013.66 1014.12 1014.53 1014.92 1015.29 1015.67
1007.99 1007.75 1007.47 1007.17 1006.88 1006.64 1006.48 1006.39 1006.38 1006.40 1006.44 1006.44 1006.41 1006.33 1006.22 1006.12 1006.07 1006.10 1006.24 1006.51 1006.89 1007.35 1007.83 1008.30 1008.72 1009.05 1009.29 1009.48 1009.63 1009.79 1009.99 1010.27 1010.63 1011.06 1011.57 1012.11 1012.67 1013.22 1013.76 1014.28 1014.78 1015.28 1015.77
1007.95 1007.70 1007.38 1007.03 1006.68 1006.35 1006.08 1005.90 1005.79 1005.73 1005.71 1005.69 1005.66 1005.59 1005.50 1005.43 1005.39 1005.43 1005.58 1005.85 1006.22 1006.68 1007.19 1007.69 1008.16 1008.56 1008.88 1009.14 1009.35 1009.54 1009.75 1010.00 1010.33 1010.72 1011.18 1011.69 1012.25 1012.83 1013.42 1014.02 1014.61 1015.21 1015.80
1007.92 1007.64 1007.28 1006.86 1006.41 1005.97 1005.58 1005.27 1005.05 1004.90 1004.82 1004.77 1004.73 1004.68 1004.64 1004.61 1004.61 1004.69 1004.85 1005.13 1005.50 1005.96 1006.48 1007.01 1007.53 1007.99 1008.39 1008.72 1009.00 1009.24 1009.48 1009.74 1010.05 1010.41 1010.83 1011.32 1011.86 1012.45 1013.08 1013.73 1014.40 1015.07 1015.74
1007.91 1007.59 1007.16 1006.64 1006.07 1005.50 1004.97 1004.51 1004.16 1003.92 1003.76 1003.68 1003.65 1003.65 1003.66 1003.70 1003.78 1003.91 1004.11 1004.41 1004.79 1005.26 1005.78 1006.33 1006.87 1007.38 1007.84 1008.24 1008.59 1008.89 1009.17 1009.45 1009.75 1010.10 1010.50 1010.97 1011.50 1012.09 1012.73 1013.41 1014.13 1014.85 1015.57
1007.91 1007.52 1007.00 1006.38 1005.68 1004.96 1004.27 1003.67 1003.19 1002.84 1002.63 1002.53 1002.52 1002.57 1002.67 1002.81 1002.98 1003.19 1003.46 1003.79 1004.19 1004.66 1005.18 1005.73 1006.28 1006.81 1007.31 1007.76 1008.16 1008.51 1008.83 1009.13 1009.45 1009.79 1010.18 1010.63 1011.14 1011.72 1012.37 1013.07 1013.81 1014.56 1015.31
1007.92 1007.46 1006.84 1006.09 1005.25 1004.38 1003.55 1002.81 1002.21 1001.78 1001.52 1001.42 1001.44 1001.57 1001.77 1002.02 1002.30 1002.62 1002.96 1003.35 1003.77 1004.24 1004.75 1005.28 1005.82 1006.35 1006.85 1007.32 1007.75 1008.13 1008.48 1008.81 1009.14 1009.49 1009.87 1010.31 1010.81 1011.38 1012.03 1012.73 1013.47 1014.23 1014.99
1007.95 1007.39 1006.67 1005.80 1004.83 1003.83 1002.87 1002.02 1001.33 1000.83 1000.54 1000.45 1000.52 1000.74 1001.04 1001.41 1001.82 1002.24 1002.67 1003.11 1003.57 1004.04 1004.52 1005.02 1005.52 1006.02 1006.51 1006.97 1007.39 1007.79 1008.16 1008.51 1008.85 1009.21 1009.60 1010.03 1010.53 1011.09 1011.72 1012.41 1013.14 1013.90 1014.65
1007.98 1007.34 1006.52 1005.55 1004.47 1003.37 1002.32 1001.38 1000.62 1000.09 999.78 999.71 999.84 1000.13 1000.54 1001.02 1001.54 1002.06 1002.58 1003.07 1003.55 1004.02 1004.47 1004.93 1005.38 1005.83 1006.28 1006.71 1007.12 1007.52 1007.89 1008.26 1008.62 1008.99 1009.39 1009.83 1010.32 1010.87 1011.49 1012.16 1012.87 1013.60 1014.34
1008.01 1007.30 1006.40 1005.35 1004.21 1003.04 1001.93 1000.94 1000.15 999.60 999.30 999.24 999.41 999.76 1000.24 1000.81 1001.42 1002.02 1002.60 1003.14 1003.64 1004.10 1004.53 1004.94 1005.35 1005.74 1006.14 1006.54 1006.93 1007.32 1007.71 1008.09 1008.47 1008.87 1009.29 1009.74 1010.23 1010.77 1011.37 1012.01 1012.69 1013.40 1014.11
1008.04 1007.28 1006.33 1005.24 1004.06 1002.87 1001.74 1000.74 999.95 999.39 999.09 999.04 999.22 999.60 1000.12 1000.73 1001.38 1002.03 1002.65 1003.22 1003.73 1004.19 1004.60 1004.98 1005.34 1005.70 1006.06 1006.43 1006.82 1007.21 1007.61 1008.02 1008.44 1008.87 1009.31 1009.78 1010.28 1010.81 1011.38 1012.00 1012.65 1013.32 1013.99
1008.07 1007.27 1006.30 1005.21 1004.04 1002.87 1001.76 1000.79 1000.00 999.45 999.14 999.08 999.25 999.61 1000.11 1000.71 1001.36 1002.02 1002.64 1003.22 1003.73 1004.19 1004.60 1004.96 1005.31 1005.66 1006.01 1006.38 1006.78 1007.19 1007.62 1008.07 1008.53 1009.00 1009.48 1009.97 1010.48 1011.01 1011.57 1012.15 1012.76 1013.39 1014.03
1008.07 1007.27 1006.32 1005.26 1004.14 1003.03 1001.98 1001.05 1000.30 999.75 999.43 999.33 999.44 999.74 1000.18 1000.72 1001.32 1001.93 1002.54 1003.10 1003.61 1004.08 1004.49 1004.88 1005.24 1005.61 1005.98 1006.38 1006.81 1007.27 1007.75 1008.25 1008.76 1009.28 1009.80 1010.32 1010.84 1011.37 1011.91 1012.46 1013.03 1013.62 1014.22
1008.06 1007.27 1006.37 1005.38 1004.35 1003.33 1002.37 1001.52 1000.81 1000.27 999.92 999.77 999.80 1000.00 1000.33 1000.77 1001.27 1001.82 1002.37 1002.90 1003.41 1003.88 1004.33 1004.75 1005.16 1005.57 1006.00 1006.45 1006.93 1007.44 1007.98 1008.54 1009.11 1009.67 1010.24 1010.78 1011.32 1011.85 1012.37 1012.89 1013.43 1013.98 1014.55
1008.02 1007.28 1006.46 1005.57 1004.66 1003.76 1002.91 1002.15 1001.50 1000.98 1000.61 1000.39 1000.33 1000.40 1000.60 1000.91 1001.30 1001.75 1002.23 1002.73 1003.22 1003.71 1004.19 1004.65 1005.12 1005.59 1006.08 1006.60 1007.14 1007.72 1008.31 1008.92 1009.54 1010.15 1010.75 1011.32 1011.87 1012.40 1012.90 1013.41 1013.91 1014.43 1014.97
1007.98 1007.31 1006.58 1005.82 1005.04 1004.28 1003.57 1002.91 1002.33 1001.84 1001.46 1001.19 1001.03 1000.99 1001.06 1001.24 1001.51 1001.85 1002.26 1002.70 1003.18 1003.67 1004.18 1004.69 1005.21 1005.74 1006.29 1006.86 1007.45 1008.07 1008.71 1009.36 1010.01 1010.65 1011.27 1011.86 1012.42 1012.94 1013.45 1013.93 1014.42 1014.91 1015.42
1007.94 1007.36 1006.75 1006.11 1005.48 1004.87 1004.29 1003.75 1003.26 1002.83 1002.45 1002.15 1001.93 1001.79 1001.75 1001.81 1001.97 1002.22 1002.55 1002.94 1003.39 1003.88 1004.40 1004.93 1005.49 1006.05 1006.63 1007.23 1007.85 1008.49 1009.14 1009.81 1010.47 1011.11 1011.74 1012.33 1012.89 1013.42 1013.92 1014.40 1014.87 1015.35 1015.84
1007.95 1007.46 1006.94 1006.44 1005.95 1005.48 1005.04 1004.62 1004.23 1003.86 1003.53 1003.22 1002.97 1002.78 1002.67 1002.64 1002.71 1002.88 1003.15 1003.49 1003.91 1004.38 1004.89 1005.42 1005.98 1006.54 1007.12 1007.71 1008.31 1008.93 1009.56 1010.20 1010.84 1011.47 1012.09 1012.68 1013.23 1013.76 1014.26 1014.74 1015.21 1015.69 1016.17
1008.00 1007.59 1007.17 1006.78 1006.40 1006.06 1005.75 1005.45 1005.16 1004.87 1004.59 1004.32 1004.08 1003.88 1003.73 1003.67 1003.70 1003.82 1004.04 1004.34 1004.72 1005.15 1005.63 1006.13 1006.65 1007.17 1007.70 1008.24 1008.79 1009.34 1009.92 1010.50 1011.10 1011.69 1012.28 1012.86 1013.41 1013.94 1014.45 1014.94 1015.42 1015.90 1016.39
1008.12 1007.77 1007.43 1007.11 1006.82 1006.57 1006.35 1006.14 1005.95 1005.74 1005.54 1005.33 1005.13 1004.96 1004.83 1004.77 1004.79 1004.90 1005.10 1005.37 1005.72 1006.11 1006.54 1006.99 1007.44 1007.89 1008.34 1008.78 1009.24 1009.71 1010.19 1010.70 1011.23 1011.77 1012.33 1012.88 1013.43 1013.96 1014.48 1014.99 1015.49 1015.98 1016.47
Thickness
5740 5738 5734 5733 5730 5725 5721 5719 5716 5713 5710 5708 5705 5702 5700 5699 5697 5695 5692 5690 5689 5688 5688 5690 5688 5688 5688 5687 5687 5686 5685 5684 5684 5683 5683 5686 5688 5688 5688 5690 5691 5692 5691
5734 5730 5728 5727 5724 5720 5717 5715 5712 5709 5706 5703 5700 5697 5695 5694 5692 5690 5687 5685 5683 5682 5684 5683 5683 5683 5682 5681 5680 5679 5680 5681 5680 5678 5677 5678 5680 5682 5686 5686 5686 5687 5688
5728 5726 5724 5721 5720 5716 5713 5712 5708 5704 5701 5698 5696 5692 5690 5689 5687 5684 5683 5681 5679 5678 5677 5677 5677 5677 5678 5677 5675 5675 5674 5674 5675 5676 5674 5673 5674 5677 5681 5681 5682 5682 5683
5727 5723 5720 5718 5716 5714 5712 5708 5704 5700 5696 5693 5690 5686 5683 5682 5681 5679 5679 5676 5674 5674 5672 5671 5671 5672 5673 5673 5672 5672 5671 5670 5671 5672 5672 5673 5673 5669 5671 5675 5678 5678 5678
5724 5720 5717 5715 5712 5710 5707 5704 5699 5695 5692 5688 5685 5681 5680 5679 5678 5676 5674 5671 5671 5669 5668 5667 5666 5667 5668 5668 5667 5666 5666 5667 5667 5668 5668 5667 5666 5666 5665 5666 5669 5672 5674
5721 5718 5716 5712 5708 5706 5702 5698 5693 5689 5687 5684 5681 5678 5675 5673 5672 5670 5669 5668 5668 5667 5665 5663 5662 5662 5663 5662 5662 5662 5662 5662 5662 5663 5664 5664 5662 5662 5662 5662 5662 5664 5668
5718 5715 5712 5708 5704 5700 5697 5693 5689 5684 5682 5680 5677 5674 5671 5668 5666 5666 5665 5664 5664 5663 5661 5660 5659 5658 5658 5658 5658 5657 5657 5657 5656 5657 5659 5660 5660 5660 5660 5659 5659 5658 5662
5715 5711 5709 5705 5700 5696 5692 5689 5685 5680 5678 5676 5673 5670 5667 5666 5664 5662 5662 5661 5660 5660 5658 5656 5655 5654 5654 5654 5653 5653 5653 5653 5652 5653 5653 5654 5655 5656 5656 5656 5654 5653 5655
5712 5709 5706 5701 5697 5692 5688 5685 5681 5677 5674 5672 5669 5666 5664 5662 5660 5658 5658 5658 5656 5656 5654 5653 5652 5651 5651 5650 5649 5649 5648 5649 5649 5649 5649 5649 5651 5651 5652 5652 5652 5649 5648
5707 5704 5701 5698 5694 5690 5686 5681 5677 5674 5671 5669 5665 5664 5661 5658 5656 5655 5653 5653 5651 5650 5649 5648 5648 5647 5647 5646 5645 5645 5645 5643 5644 5643 5642 5643 5645 5646 5646 5647 5647 5648 5647
5701 5699 5696 5694 5690 5686 5682 5677 5673 5671 5668 5665 5662 5659 5657 5655 5653 5651 5650 5648 5647 5646 5644 5644 5643 5643 5643 5642 5641 5641 5641 5640 5640 5639 5639 5638 5639 5640 5642 5642 5643 5644 5644
5698 5695 5692 5688 5685 5681 5677 5673 5670 5667 5664 5661 5658 5655 5653 5651 5648 5647 5645 5644 5643 5642 5641 5639 5639 5639 5639 5638 5638 5636 5637 5636 5635 5635 5635 5635 5636 5635 5636 5637 5639 5640 5640
5693 5690 5686 5682 5679 5676 5673 5669 5666 5663 5660 5657 5654 5651 5648 5646 5644 5643 5641 5640 5639 5638 5637 5636 5635 5634 5634 5634 5633 5633 5632 5632 5632 5632 5632 5632 5632 5631 5633 5633 5635 5635 5637
5687 5683 5679 5676 5673 5671 5668 5665 5662 5659 5656 5653 5650 5647 5644 5642 5640 5639 5637 5636 5636 5634 5633 5632 5631 5630 5630 5630 5630 5630 5629 5629 5630 5630 5629 5629 5629 5629 5630 5630 5630 5630 5630
5681 5677 5673 5670 5668 5665 5663 5660 5657 5654 5651 5648 5646 5643 5641 5639 5637 5635 5633 5632 5631 5631 5629 5628 5628 5627 5627 5626 5626 5626 5627 5626 5627 5627 5627 5627 5626 5626 5625 5627 5627 5626 5626
5675 5672 5668 5665 5662 5659 5657 5655 5652 5649 5647 5644 5642 5640 5638 5637 5634 5632 5630 5628 5628 5627 5627 5626 5625 5624 5624 5621 5618 5619 5622 5623 5623 5624 5624 5624 5624 5622 5620 5620 5620 5621 5622
5669 5666 5663 5660 5657 5655 5652 5650 5648 5646 5643 5641 5639 5637 5635 5633 5631 5629 5628 5625 5624 5623 5623 5623 5622 5621 5619 5615 5613 5612 5614 5618 5619 5620 5620 5621 5623 5621 5621 5619 5616 5616 5616
5664 5661 5659 5656 5654 5652 5649 5647 5645 5642 5640 5637 5636 5635 5632 5630 5628 5626 5624 5622 5621 5620 5619 5619 5618 5618 5616 5612 5610 5609 5611 5614 5615 5616 5616 5616 5617 5618 5618 5618 5618 5618 5617
5659 5656 5655 5653 5650 5648 5645 5643 5641 5639 5637 5634 5632 5631 5629 5626 5624 5622 5620 5619 5617 5616 5616 5616 5615 5614 5612 5609 5607 5605 5609 5611 5612 5613 5613 5613 5613 5611 5610 5612 5613 5613 5614
5655 5651 5650 5648 5645 5643 5641 5638 5636 5634 5632 5630 5629 5628 5625 5622 5620 5618 5616 5615 5614 5613 5614 5613 5612 5611 5610 5606 5603 5601 5606 5608 5609 5609 5610 5608 5607 5606 5605 5607 5608 5609 5610
5649 5647 5645 5643 5640 5638 5636 5633 5631 5629 5628 5628 5626 5624 5621 5619 5617 5615 5613 5612 5611 5611 5610 5609 5609 5608 5607 5604 5601 5598 5602 5604 5605 5607 5607 5607 5602 5600 5599 5600 5603 5603 5603
5645 5642 5639 5637 5635 5634 5631 5628 5626 5626 5624 5623 5621 5619 5618 5616 5616 5612 5610 5610 5608 5608 5608 5607 5606 5607 5606 5603 5600 5596 5595 5596 5599 5601 5602 5601 5596 5595 5594 5595 5596 5596 5596
5640 5637 5634 5632 5630 5629 5627 5623 5622 5622 5620 5618 5616 5615 5614 5613 5611 5609 5609 5608 5607 5607 5607 5607 5606 5605 5605 5602 5596 5593 5592 5591 5593 5597 5594 5592 5591 5590 5592 5591 5591 5592 5596
5635 5632 5630 5627 5626 5624 5623 5621 5620 5618 5616 5614 5612 5612 5611 5611 5609 5608 5608 5606 5605 5604 5604 5602 5601 5600 5599 5598 5596 5594 5592 5590 5591 5592 5590 5588 5587 5588 5588 5589 5590 5592 5594
5630 5628 5625 5623 5622 5621 5619 5618 5616 5614 5611 5610 5609 5609 5609 5609 5606 5606 5603 5602 5600 5597 5595 5595 5595 5594 5593 5590 5584 5584 5587 5588 5588 5586 5589 5591 5591 5591 5591 5591 5591 5590 5590
5625 5623 5621 5619 5618 5617 5615 5614 5612 5610 5607 5606 5605 5606 5606 5605 5605 5604 5603 5598 5595 5591 5588 5585 5584 5587 5583 5581 5580 5579 5578 5578 5577 5581 5588 5589 5589 5589 5588 5588 5587 5587 5586